SCP
0 0 0 0 0 -0 0 0 0 0 0 0 0 0 0 -0 0 0 0 0 0 0 0 0 -0 0 -0 -0 0 0 0 0 0 0 0 -0 0 0 0 0 0 0 0 0
0 0 0 0 0 0 0 0 0 0 0 0 0 0 0 0 0 0 0 0 0 0 0 0 0 0 0 0 -0 0 0 0 0 0 0 0 0 0 0 0 0 0 0 -0
0 0 0 0 0 0 0 0 0 0 0 0 0 0 0 0 0 0 0 0 0 0 0 0 0 0 0 0 0 0 0 0 0 0 0 0 0 0 0 0 0 0 0 0
0 0 0 0 0 0 0 0 0 0 0 0 0 0 0 0 0 0 0 0 0 0 0 0 0 0 0 0 0 0 0 0 0 -0 -0 0 0 0 0 0 0 0 0 0
0 0 0 0 0 0 0 0 0 0 0 0 0 0 0 0 0 0 0 0 0 0 0 0 0 0 0 0 0 0 0 0 0 -0 0 0 0 -0 0 0 0 0 0 0
0 0 0 0 0 0 0 0 0 0 0 0 0 0 0 0 0 0 0 0 0 0 0 0 0 0 0 0 1 0 0 0 0 -0 0 0 0 0 0 0 0 0 0 0
0 0 0 0 0 0 0 0 0 0 0 0 0 0 0 0 0 0 0 0 0 0 0 0 0 0 0 0 0 0 0 0 0 -0 0 0 0 0 0 0 0 -0 0 0
0 0 0 0 0 0 0 0 0 0 0 0 0 0 0 0 0 0 0 0 0 0 0 0 0 0 0 0 0 0 0 0 0 0 0 0 0 0 0 0 0 0 0 0
0 0 0 0 0 0 0 0 0 0 0 0 0 0 0 0 0 0 0 0 0 0 0 0 0 0 0 0 0 0 0 0 0 0 0 0 0 0 0 0 0 0 0 0
0 0 0 0 0 0 0 0 0 0 0 -0 0 0 0 0 0 0 0 0 0 0 0 0 0 0 0 0 0 0 0 0 0 0 0 0 0 -0 0 0 0 0 0 0
0 0 0 0 0 0 0 0 0 0 0 0 0 0 0 0 0 0 0 0 0 0 0 0 0 0 0 0 0 0 0 0 0 0 0 0 0 0 0 0 0 0 0 0
0 0 0 0 0 0 0 0 0 0 0 0 0 0 0 0 0 0 0 0 0 0 0 0 0 -0 0 0 0 0 0 0 0 0 0 0 0 0 0 0 0 0 -0 -0
0 0 0 0 0 0 0 0 0 0 -0 -0 0 -0 -0 0 0 0 0 0 0 0 0 0 0 0 0 0 0 0 0 0 -0 0 0 0 0 0 0 0 0 0 0 0
0 0 0 0 0 0 0 0 0 0 0 -0 0 0 -0 0 0 0 0 0 0 0 0 0 0 0 0 0 0 0 0 0 0 0 0 0 0 0 0 0 0 0 0 0
0 0 0 0 0 0 0 0 0 0 0 0 0 0 0 0 0 0 0 0 0 0 0 0 0 0 0 0 0 0 0 0 0 0 -0 0 0 0 0 0 0 0 0 0
0 0 0 0 0 0 0 0 0 0 0 -0 -0 0 0 0 0 0 0 0 0 0 0 0 0 0 0 0 -0 0 0 0 0 0 -0 -0 0 0 0 0 0 0 0 0
0 0 0 0 0 0 0 0 0 0 0 0 0 -0 0 0 0 0 0 0 0 0 0 0 0 0 0 0 0 0 -0 0 -0 -0 -0 0 0 0 0 0 0 0 0 0
0 0 0 0 0 0 0 0 0 0 0 0 0 0 0 0 0 0 0 0 0 0 0 0 0 0 0 0 0 -0 0 -0 0 0 0 0 0 0 0 0 0 0 0 0
0 0 0 0 0 0 0 0 0 0 0 0 0 0 0 0 0 0 0 0 0 0 0 0 0 0 0 0 0 -0 -0 -0 -0 0 0 0 0 0 0 0 0 0 0 0
0 0 0 0 0 0 0 0 0 0 0 0 0 0 0 0 0 0 0 0 0 0 0 0 0 0 0 -0 0 -0 -0 -0 0 0 0 0 0 0 0 0 0 0 0 0
0 0 0 0 0 0 0 0 0 0 0 0 0 0 0 0 0 0 0 0 0 0 0 0 0 0 0 0 0 0 0 0 0 0 0 0 0 0 0 0 0 0 0 0
0 0 0 0 0 0 0 0 0 0 0 0 0 0 0 0 0 0 0 0 0 0 0 0 0 0 0 0 0 0 0 0 0 0 0 0 0 0 0 0 0 0 0 0
0 0 0 0 0 0 0 0 0 0 0 0 0 0 0 0 0 0 0 0 0 0 0 0 0 0 0 0 0 1 0 0 0 0 0 0 0 0 0 0 0 0 0 0
0 0 0 0 0 0 0 0 0 0 0 0 0 0 0 -0 0 0 0 0 0 0 0 0 0 0 0 0 0 0 0 0 0 0 -0 -0 0 0 0 0 0 0 0 0
0 0 0 0 0 0 0 0 0 0 0 0 0 0 0 0 -0 0 0 0 0 0 0 0 0 0 0 0 0 0 0 0 0 0 0 0 0 0 0 0 0 0 0 -0
0 0 0 0 0 0 0 0 0 0 -0 -0 -0 -0 0 0 0 0 0 0 0 0 0 0 0 0 0 1 0 0 0 0 0 0 0 0 0 0 0 0 0 0 0 0
0 0 0 0 0 0 -0 0 0 0 -0 -0 -0 0 0 0 0 0 -0 0 -0 -0 0 0 0 0 0 0 0 0 0 0 0 0 0 0 0 0 0 0 0 0 0 0
Wind_Speed_500mb
23 23 23 22 26 17 11 7 6 14 29 10 14 17 13 17 41 64 12 10 13 14 30 9 34 22 26 63 49 33 20 13 13 23 22 27 19 18 13 8 14 5 7 12
20 22 21 20 20 16 10 8 21 15 14 8 15 21 34 45 43 44 11 13 15 18 16 10 17 19 30 37 41 25 19 8 6 19 14 10 17 15 9 8 6 10 10 8
18 20 18 16 16 14 7 8 6 14 18 28 13 15 24 31 49 42 37 15 24 15 17 14 11 10 14 31 30 40 44 12 14 16 15 5 4 11 14 15 7 8 10 13
17 18 17 14 13 11 4 8 5 4 3 11 17 16 22 37 34 36 22 17 18 17 11 16 14 15 22 13 19 8 16 13 14 18 16 23 19 23 27 16 17 13 12 18
17 17 15 13 11 8 7 9 10 19 14 29 20 17 22 33 41 29 12 15 20 20 17 9 7 17 14 9 11 18 10 11 12 11 13 21 27 26 7 7 17 12 23 14
17 15 14 11 8 2 3 12 20 12 13 11 11 9 25 28 34 39 39 26 22 23 16 32 35 19 34 21 8 8 14 12 8 10 13 20 18 14 16 11 6 6 10 16
15 14 13 11 6 1 3 11 13 10 9 10 17 37 34 34 34 24 35 30 17 7 13 23 25 17 38 33 22 19 10 11 8 6 7 10 8 7 11 13 19 17 22 24
15 13 12 11 8 4 5 7 5 6 8 14 18 46 39 48 53 30 31 32 23 28 12 6 8 7 9 18 14 5 10 11 4 9 5 10 13 7 12 14 14 38 8 20
16 14 12 12 9 6 3 7 11 6 11 6 16 34 35 14 25 21 29 23 27 21 5 3 6 6 11 10 6 15 14 11 10 6 9 9 16 12 24 3 16 14 19 28
15 14 12 12 11 9 6 8 9 7 9 23 19 8 19 22 29 12 19 42 20 14 1 4 7 11 10 12 17 15 7 7 12 7 7 5 14 22 21 8 12 10 37 48
16 12 12 12 11 10 6 3 11 13 10 38 34 25 27 31 18 11 44 28 19 3 4 4 6 4 8 6 9 3 11 12 8 8 9 8 12 7 10 11 5 33 49 45
16 13 12 12 12 11 5 2 12 13 18 29 30 41 50 42 41 45 23 20 17 19 9 11 8 7 10 13 3 12 8 5 2 3 11 14 14 28 17 12 24 41 56 55
19 15 13 13 12 12 11 12 6 14 16 36 26 27 18 40 34 38 43 36 14 27 26 12 4 8 4 6 8 11 11 22 8 16 12 12 32 31 20 17 28 41 51 56
21 16 14 13 13 14 15 9 4 12 12 8 15 11 29 36 49 38 34 56 44 30 37 17 6 4 3 4 7 4 6 8 18 18 31 5 18 32 27 29 29 42 49 51
21 18 15 13 13 13 16 13 13 7 9 9 28 55 26 21 49 48 32 36 35 22 16 8 8 14 5 7 6 6 6 10 15 13 18 10 31 35 27 30 35 46 50 50
20 19 14 11 11 9 7 4 12 19 17 10 8 23 32 34 44 42 40 35 29 28 12 10 18 23 13 7 6 7 9 12 12 10 33 56 49 37 33 37 38 40 39 41
19 17 13 11 13 16 12 6 10 9 16 6 11 11 13 19 27 34 28 24 30 30 26 18 25 29 25 8 7 25 31 55 67 45 57 47 48 47 39 41 39 37 40 40
18 16 10 8 11 15 30 23 9 8 5 7 6 8 12 3 11 20 25 31 29 18 20 20 15 2 9 4 23 57 47 37 22 26 38 52 50 47 44 42 43 43 42 48
19 13 8 8 11 8 12 14 10 14 10 7 6 6 5 19 24 11 18 27 7 21 10 16 14 8 8 14 32 70 70 48 33 41 48 51 50 48 46 46 44 45 47 47
21 17 3 9 13 7 22 9 5 8 12 13 8 12 6 15 24 9 7 11 8 7 15 23 16 11 23 65 79 95 63 60 50 53 45 48 48 49 48 45 45 47 47 44
23 9 6 7 26 12 8 11 13 16 9 16 19 35 11 5 3 8 10 7 7 8 9 13 9 10 26 44 35 3 63 69 66 54 55 51 51 54 52 45 43 45 43 45
17 1 4 22 12 13 8 7 8 10 8 26 15 27 38 12 8 15 9 7 7 11 19 12 9 11 56 50 39 32 72 67 56 49 53 48 48 53 51 47 45 43 44 48
10 5 8 8 11 5 10 10 8 7 11 2 5 12 26 11 13 19 7 9 9 41 9 11 9 39 47 61 41 48 65 64 53 52 53 52 50 47 45 46 45 47 47 45
8 7 4 8 9 11 11 13 14 21 6 3 14 8 5 15 6 7 9 7 3 9 11 14 8 43 56 44 58 45 63 63 62 65 60 48 48 46 42 42 47 48 48 44
8 9 8 14 27 25 15 34 29 4 11 6 9 9 10 3 7 7 6 7 10 9 7 8 43 55 32 63 66 53 52 60 68 63 53 48 49 47 45 44 47 48 48 46
7 12 12 24 21 23 25 13 15 19 14 21 22 8 11 10 6 9 10 8 11 7 13 69 48 60 57 69 67 67 67 71 66 59 52 54 52 53 52 51 48 47 44 45
10 14 30 34 29 25 9 12 8 10 9 3 10 5 11 8 8 8 11 10 5 22 49 60 32 69 83 80 73 67 68 68 64 60 56 55 53 54 54 53 46 44 41 42
Wind_Direction_500mb
283 284 292 298 302 303 298 298 256 142 153 161 210 239 260 253 285 296 270 307 316 305 304 268 202 215 202 191 203 197 194 179 234 246 271 186 185 207 193 130 281 116 125 256
281 285 290 299 313 326 300 272 273 256 253 220 238 268 261 258 270 279 289 282 280 295 300 319 210 206 240 192 199 176 189 228 263 323 324 198 189 219 196 121 93 200 153 269
280 282 287 295 309 320 321 304 295 231 248 250 276 293 296 270 262 268 255 287 309 311 310 293 305 338 243 236 182 182 171 169 160 217 223 26 227 234 214 143 128 246 208 155
275 278 283 288 303 315 308 256 263 17 298 249 281 245 280 292 289 267 260 301 293 287 309 326 305 298 304 163 136 105 129 176 185 240 279 276 267 285 222 198 212 209 207 158
263 273 279 285 297 314 235 292 346 334 294 298 300 251 251 263 278 269 225 234 267 269 263 281 332 10 12 329 341 161 175 192 186 285 287 274 281 246 96 305 244 98 114 72
258 267 272 276 299 10 246 276 296 327 292 275 302 301 231 262 262 291 252 208 245 262 14 359 321 320 300 278 271 223 142 128 121 244 276 286 289 344 334 227 192 163 134 171
245 255 262 266 277 230 179 267 325 296 274 310 339 323 317 311 267 278 309 261 225 351 337 336 305 268 280 280 273 158 128 123 125 227 6 247 267 313 356 31 93 101 140 158
240 252 255 257 249 241 193 276 304 303 294 317 324 353 352 331 334 280 283 295 19 358 41 340 253 294 280 268 245 160 133 135 156 136 102 321 320 329 44 37 352 306 143 148
238 249 251 252 247 243 186 275 294 292 318 280 317 340 351 351 337 333 273 306 316 344 5 246 245 238 195 213 225 194 174 153 139 125 120 193 231 238 247 163 263 289 150 146
231 239 246 246 246 237 226 238 297 286 279 296 327 356 344 331 331 301 348 339 322 265 337 306 255 248 272 209 202 237 157 153 177 206 159 136 344 268 207 177 229 15 135 138
226 236 239 241 244 236 223 216 283 278 269 286 272 280 311 327 322 337 328 328 8 301 177 249 264 331 316 325 122 170 170 148 195 188 187 139 249 95 129 209 10 131 138 147
223 231 237 239 239 229 217 166 290 284 269 266 267 272 260 271 274 290 311 302 341 7 348 6 351 21 351 333 354 338 44 74 288 309 188 189 135 117 112 102 87 128 129 133
220 227 237 238 236 226 221 218 254 314 293 306 277 283 271 258 272 287 274 297 341 327 337 295 306 73 294 359 16 321 29 22 70 8 272 204 153 129 119 129 101 133 141 141
214 224 233 235 233 226 220 226 249 308 305 274 283 263 283 254 251 274 281 270 280 294 306 267 244 136 95 6 320 329 12 345 3 303 282 107 139 121 120 114 110 125 139 145
209 218 227 233 233 230 225 246 214 265 280 299 296 301 292 268 238 259 271 265 269 290 305 269 266 138 131 135 254 203 220 137 206 252 211 135 142 134 135 127 129 136 134 139
206 214 223 230 226 215 178 291 214 223 243 291 296 295 282 302 226 245 275 249 260 252 243 290 273 192 121 143 165 262 223 189 311 270 268 139 135 135 146 137 137 136 141 147
204 208 217 224 219 204 185 209 88 211 232 270 286 276 276 299 235 254 239 244 253 252 266 240 257 276 193 170 158 261 204 231 254 227 136 120 139 136 143 142 139 141 144 149
197 198 208 225 229 236 229 207 256 339 226 242 272 270 289 319 263 222 234 234 249 219 222 262 267 201 90 313 145 175 167 211 210 166 147 142 141 141 141 140 142 140 142 150
181 176 185 205 225 214 232 208 168 208 228 282 263 278 282 333 287 246 228 225 222 242 215 231 262 200 192 192 173 167 182 183 197 153 141 145 145 146 146 146 147 149 147 151
162 164 171 224 200 171 172 162 176 213 218 222 252 282 292 346 355 275 206 231 191 255 217 237 218 264 256 217 194 198 176 186 169 142 144 151 151 154 152 156 157 160 156 151
168 197 257 169 164 166 202 210 216 181 216 213 225 223 237 302 321 306 303 299 239 210 235 186 203 207 246 236 198 151 213 178 182 178 171 174 168 158 157 158 159 160 159 158
163 298 251 161 193 218 223 201 226 188 237 174 193 203 191 166 222 250 262 265 262 232 184 192 217 202 225 235 214 204 180 172 169 169 168 171 164 161 157 157 158 159 158 159
241 262 198 218 215 194 204 216 196 212 200 263 267 152 152 146 179 274 251 232 244 319 218 192 191 208 223 226 214 168 161 157 156 159 164 161 156 155 155 156 157 157 158 162
221 224 263 220 219 212 221 238 235 243 157 56 48 342 121 144 201 241 229 235 324 264 210 189 187 201 207 195 185 141 163 155 156 161 161 155 152 151 157 162 162 162 163 161
248 237 229 219 241 289 279 223 244 120 86 103 66 44 285 130 234 238 236 222 235 263 253 182 207 215 204 193 186 180 154 154 157 159 157 153 152 154 158 163 164 167 163 162
251 244 261 255 225 242 255 299 92 95 109 98 77 69 292 213 218 236 218 265 200 312 332 315 204 207 169 166 163 161 157 160 160 161 158 156 158 160 160 162 166 170 170 166
235 241 250 278 293 307 108 177 135 129 151 105 100 228 239 290 219 231 168 244 347 327 334 329 325 153 153 160 155 155 157 159 160 158 159 158 162 164 163 163 167 170 168 166
Wind_Speed_850mb
23 23 23 22 26 17 11 7 6 14 29 10 14 17 13 17 41 64 12 10 13 14 30 9 34 22 26 63 49 33 20 13 13 23 22 27 19 18 13 8 14 5 7 12
20 22 21 20 20 16 10 8 21 15 14 8 15 21 34 45 43 44 11 13 15 18 16 10 17 19 30 37 41 25 19 8 6 19 14 10 17 15 9 8 6 10 10 8
18 20 18 16 16 14 7 8 6 14 18 28 13 15 24 31 49 42 37 15 24 15 17 14 11 10 14 31 30 40 44 12 14 16 15 5 4 11 14 15 7 8 10 13
17 18 17 14 13 11 4 8 5 4 3 11 17 16 22 37 34 36 22 17 18 17 11 16 14 15 22 13 19 8 16 13 14 18 16 23 19 23 27 16 17 13 12 18
17 17 15 13 11 8 7 9 10 19 14 29 20 17 22 33 41 29 12 15 20 20 17 9 7 17 14 9 11 18 10 11 12 11 13 21 27 26 7 7 17 12 23 14
17 15 14 11 8 2 3 12 20 12 13 11 11 9 25 28 34 39 39 26 22 23 16 32 35 19 34 21 8 8 14 12 8 10 13 20 18 14 16 11 6 6 10 16
15 14 13 11 6 1 3 11 13 10 9 10 17 37 34 34 34 24 35 30 17 7 13 23 25 17 38 33 22 19 10 11 8 6 7 10 8 7 11 13 19 17 22 24
15 13 12 11 8 4 5 7 5 6 8 14 18 46 39 48 53 30 31 32 23 28 12 6 8 7 9 18 14 5 10 11 4 9 5 10 13 7 12 14 14 38 8 20
16 14 12 12 9 6 3 7 11 6 11 6 16 34 35 14 25 21 29 23 27 21 5 3 6 6 11 10 6 15 14 11 10 6 9 9 16 12 24 3 16 14 19 28
15 14 12 12 11 9 6 8 9 7 9 23 19 8 19 22 29 12 19 42 20 14 1 4 7 11 10 12 17 15 7 7 12 7 7 5 14 22 21 8 12 10 37 48
16 12 12 12 11 10 6 3 11 13 10 38 34 25 27 31 18 11 44 28 19 3 4 4 6 4 8 6 9 3 11 12 8 8 9 8 12 7 10 11 5 33 49 45
16 13 12 12 12 11 5 2 12 13 18 29 30 41 50 42 41 45 23 20 17 19 9 11 8 7 10 13 3 12 8 5 2 3 11 14 14 28 17 12 24 41 56 55
19 15 13 13 12 12 11 12 6 14 16 36 26 27 18 40 34 38 43 36 14 27 26 12 4 8 4 6 8 11 11 22 8 16 12 12 32 31 20 17 28 41 51 56
21 16 14 13 13 14 15 9 4 12 12 8 15 11 29 36 49 38 34 56 44 30 37 17 6 4 3 4 7 4 6 8 18 18 31 5 18 32 27 29 29 42 49 51
21 18 15 13 13 13 16 13 13 7 9 9 28 55 26 21 49 48 32 36 35 22 16 8 8 14 5 7 6 6 6 10 15 13 18 10 31 35 27 30 35 46 50 50
20 19 14 11 11 9 7 4 12 19 17 10 8 23 32 34 44 42 40 35 29 28 12 10 18 23 13 7 6 7 9 12 12 10 33 56 49 37 33 37 38 40 39 41
19 17 13 11 13 16 12 6 10 9 16 6 11 11 13 19 27 34 28 24 30 30 26 18 25 29 25 8 7 25 31 55 67 45 57 47 48 47 39 41 39 37 40 40
18 16 10 8 11 15 30 23 9 8 5 7 6 8 12 3 11 20 25 31 29 18 20 20 15 2 9 4 23 57 47 37 22 26 38 52 50 47 44 42 43 43 42 48
19 13 8 8 11 8 12 14 10 14 10 7 6 6 5 19 24 11 18 27 7 21 10 16 14 8 8 14 32 70 70 48 33 41 48 51 50 48 46 46 44 45 47 47
21 17 3 9 13 7 22 9 5 8 12 13 8 12 6 15 24 9 7 11 8 7 15 23 16 11 23 65 79 95 63 60 50 53 45 48 48 49 48 45 45 47 47 44
23 9 6 7 26 12 8 11 13 16 9 16 19 35 11 5 3 8 10 7 7 8 9 13 9 10 26 44 35 3 63 69 66 54 55 51 51 54 52 45 43 45 43 45
17 1 4 22 12 13 8 7 8 10 8 26 15 27 38 12 8 15 9 7 7 11 19 12 9 11 56 50 39 32 72 67 56 49 53 48 48 53 51 47 45 43 44 48
10 5 8 8 11 5 10 10 8 7 11 2 5 12 26 11 13 19 7 9 9 41 9 11 9 39 47 61 41 48 65 64 53 52 53 52 50 47 45 46 45 47 47 45
8 7 4 8 9 11 11 13 14 21 6 3 14 8 5 15 6 7 9 7 3 9 11 14 8 43 56 44 58 45 63 63 62 65 60 48 48 46 42 42 47 48 48 44
8 9 8 14 27 25 15 34 29 4 11 6 9 9 10 3 7 7 6 7 10 9 7 8 43 55 32 63 66 53 52 60 68 63 53 48 49 47 45 44 47 48 48 46
7 12 12 24 21 23 25 13 15 19 14 21 22 8 11 10 6 9 10 8 11 7 13 69 48 60 57 69 67 67 67 71 66 59 52 54 52 53 52 51 48 47 44 45
10 14 30 34 29 25 9 12 8 10 9 3 10 5 11 8 8 8 11 10 5 22 49 60 32 69 83 80 73 67 68 68 64 60 56 55 53 54 54 53 46 44 41 42
Wind_Direction_850mb
283 284 292 298 302 303 298 298 256 142 153 161 210 239 260 253 285 296 270 307 316 305 304 268 202 215 202 191 203 197 194 179 234 246 271 186 185 207 193 130 281 116 125 256
281 285 290 299 313 326 300 272 273 256 253 220 238 268 261 258 270 279 289 282 280 295 300 319 210 206 240 192 199 176 189 228 263 323 324 198 189 219 196 121 93 200 153 269
280 282 287 295 309 320 321 304 295 231 248 250 276 293 296 270 262 268 255 287 309 311 310 293 305 338 243 236 182 182 171 169 160 217 223 26 227 234 214 143 128 246 208 155
275 278 283 288 303 315 308 256 263 17 298 249 281 245 280 292 289 267 260 301 293 287 309 326 305 298 304 163 136 105 129 176 185 240 279 276 267 285 222 198 212 209 207 158
263 273 279 285 297 314 235 292 346 334 294 298 300 251 251 263 278 269 225 234 267 269 263 281 332 10 12 329 341 161 175 192 186 285 287 274 281 246 96 305 244 98 114 72
258 267 272 276 299 10 246 276 296 327 292 275 302 301 231 262 262 291 252 208 245 262 14 359 321 320 300 278 271 223 142 128 121 244 276 286 289 344 334 227 192 163 134 171
245 255 262 266 277 230 179 267 325 296 274 310 339 323 317 311 267 278 309 261 225 351 337 336 305 268 280 280 273 158 128 123 125 227 6 247 267 313 356 31 93 101 140 158
240 252 255 257 249 241 193 276 304 303 294 317 324 353 352 331 334 280 283 295 19 358 41 340 253 294 280 268 245 160 133 135 156 136 102 321 320 329 44 37 352 306 143 148
238 249 251 252 247 243 186 275 294 292 318 280 317 340 351 351 337 333 273 306 316 344 5 246 245 238 195 213 225 194 174 153 139 125 120 193 231 238 247 163 263 289 150 146
231 239 246 246 246 237 226 238 297 286 279 296 327 356 344 331 331 301 348 339 322 265 337 306 255 248 272 209 202 237 157 153 177 206 159 136 344 268 207 177 229 15 135 138
226 236 239 241 244 236 223 216 283 278 269 286 272 280 311 327 322 337 328 328 8 301 177 249 264 331 316 325 122 170 170 148 195 188 187 139 249 95 129 209 10 131 138 147
223 231 237 239 239 229 217 166 290 284 269 266 267 272 260 271 274 290 311 302 341 7 348 6 351 21 351 333 354 338 44 74 288 309 188 189 135 117 112 102 87 128 129 133
220 227 237 238 236 226 221 218 254 314 293 306 277 283 271 258 272 287 274 297 341 327 337 295 306 73 294 359 16 321 29 22 70 8 272 204 153 129 119 129 101 133 141 141
214 224 233 235 233 226 220 226 249 308 305 274 283 263 283 254 251 274 281 270 280 294 306 267 244 136 95 6 320 329 12 345 3 303 282 107 139 121 120 114 110 125 139 145
209 218 227 233 233 230 225 246 214 265 280 299 296 301 292 268 238 259 271 265 269 290 305 269 266 138 131 135 254 203 220 137 206 252 211 135 142 134 135 127 129 136 134 139
206 214 223 230 226 215 178 291 214 223 243 291 296 295 282 302 226 245 275 249 260 252 243 290 273 192 121 143 165 262 223 189 311 270 268 139 135 135 146 137 137 136 141 147
204 208 217 224 219 204 185 209 88 211 232 270 286 276 276 299 235 254 239 244 253 252 266 240 257 276 193 170 158 261 204 231 254 227 136 120 139 136 143 142 139 141 144 149
197 198 208 225 229 236 229 207 256 339 226 242 272 270 289 319 263 222 234 234 249 219 222 262 267 201 90 313 145 175 167 211 210 166 147 142 141 141 141 140 142 140 142 150
181 176 185 205 225 214 232 208 168 208 228 282 263 278 282 333 287 246 228 225 222 242 215 231 262 200 192 192 173 167 182 183 197 153 141 145 145 146 146 146 147 149 147 151
162 164 171 224 200 171 172 162 176 213 218 222 252 282 292 346 355 275 206 231 191 255 217 237 218 264 256 217 194 198 176 186 169 142 144 151 151 154 152 156 157 160 156 151
168 197 257 169 164 166 202 210 216 181 216 213 225 223 237 302 321 306 303 299 239 210 235 186 203 207 246 236 198 151 213 178 182 178 171 174 168 158 157 158 159 160 159 158
163 298 251 161 193 218 223 201 226 188 237 174 193 203 191 166 222 250 262 265 262 232 184 192 217 202 225 235 214 204 180 172 169 169 168 171 164 161 157 157 158 159 158 159
241 262 198 218 215 194 204 216 196 212 200 263 267 152 152 146 179 274 251 232 244 319 218 192 191 208 223 226 214 168 161 157 156 159 164 161 156 155 155 156 157 157 158 162
221 224 263 220 219 212 221 238 235 243 157 56 48 342 121 144 201 241 229 235 324 264 210 189 187 201 207 195 185 141 163 155 156 161 161 155 152 151 157 162 162 162 163 161
248 237 229 219 241 289 279 223 244 120 86 103 66 44 285 130 234 238 236 222 235 263 253 182 207 215 204 193 186 180 154 154 157 159 157 153 152 154 158 163 164 167 163 162
251 244 261 255 225 242 255 299 92 95 109 98 77 69 292 213 218 236 218 265 200 312 332 315 204 207 169 166 163 161 157 160 160 161 158 156 158 160 160 162 166 170 170 166
235 241 250 278 293 307 108 177 135 129 151 105 100 228 239 290 219 231 168 244 347 327 334 329 325 153 153 160 155 155 157 159 160 158 159 158 162 164 163 163 167 170 168 166